Tracking 30970 objects as of 3-Jul-2025
HD Live streaming from Space Station
objects crossing your sky now

CZ-6A DEB

Track CZ-6A DEB now!
10-day predictions


NORAD ID: 54315
Int'l Code: 2022-151BJ
Perigee: 833.5 km
Apogee: 895.1 km
Inclination: 98.8 °
Period: 102.1 minutes
Semi major axis: 7235 km
RCS: Unknown
Launch date: November 11, 2022
Source: People's Republic of China (PRC)
Launch site: Taiyaun Space Center, China (TSC)

Note: This is SATELLITE DEBRIS
Your satellite tracking list
Your tracking list is empty




NASA's NSSDC Master Catalog

Two Line Element Set (TLE):
1 54315U 22151BJ  25183.96833211  .00000144  00000-0  10465-3 0  9999
2 54315  98.8396 187.8833 0042588 250.9721 108.6834 14.10643855135279
Source of the keplerian elements: AFSPC